Regional Weather Roundup
Issued by NWS

Home | Current Version | Previous Version | Text Only | Print | Product List | Glossary On
Versions: 1 2 3 4 5 6 7 8 9 10 11 12 13 14 15 16 17 18 19 20 21 22 23 24 25 26 27 28 29 30 31 32 33 34 35 36 37 38 39 40 41 42 43 44 45 46 47 48 49 50
000
ASUS43 KLSX 272110
RWRMO

WEATHER SUMMARY FOR MISSOURI
NATIONAL WEATHER SERVICE SPRINGFIELD MO
400 PM CDT WED JUL 27 2016

NOTE: "FAIR" INDICATES FEW OR NO CLOUDS BELOW 12,000 FEET WITH NO
       SIGNIFICANT WEATHER AND/OR OBSTRUCTIONS TO VISIBILITY.
       CURRENT SKY AND/OR WEATHER CONDITIONS ARE NOT AVAILABLE FOR
       CHILLICOTHE AND FARMINGTON.

MOZ001>031-035>038-043-044-053-054-272200-
...NORTHERN AND WESTERN MISSOURI...

CITY           SKY/WX    TMP DP  RH WIND       PRES   REMARKS
KANSAS CTY INT PTSUNNY   88  69  53 NW6       29.95F HX  92
KANSAS C DTWN  SUNNY     91  66  43 NW7       29.92F HX  93
LEE`S SUMMIT   SUNNY     90  67  46 E6        29.95F HX  93
ST JOSEPH      PTSUNNY   87  72  60 SW3       29.95F HX  93
CHILLICOTHE      N/A     89  70  53 SW3       29.95S HX  94
KIRKSVILLE     MOSUNNY   89  68  49 S6        29.94F HX  93

$$
MOZ066>068-077>081-088>096-101>105-272200-
...SOUTHWEST MISSOURI...

CITY           SKY/WX    TMP DP  RH WIND       PRES   REMARKS
SPRINGFIELD    CLOUDY    87  71  58 CALM      29.95F HX  93
JOPLIN         MOSUNNY   88  75  65 NW6       29.94F HX  97
BRANSON        PTSUNNY   82  75  78 NW5       29.97S

$$
MOZ032>034-039>042-045>050-055>058-069>072-272200-
...CENTRAL MISSOURI...

CITY           SKY/WX    TMP DP  RH WIND       PRES   REMARKS
COLUMBIA       PTSUNNY   88  75  65 N3        29.94F HX  97
JEFFERSON CITY PTSUNNY   89  74  60 NE3       29.92F HX  98
ROLLA          SUNNY     87  74  64 SW6       29.95F HX  95
SEDALIA        SUNNY     91  75  59 N3        29.94F HX 101
WHITEMAN AFB   PTSUNNY   90  74  58 S2        29.92F HX  99
OSAGE BEACH    SUNNY     88  74  63 CALM      29.94F HX  96

$$
MOZ051-052-059>065-272200-
...EAST CENTRAL MISSOURI...

CITY           SKY/WX    TMP DP  RH WIND       PRES   REMARKS
ST LOUIS INTL  PTSUNNY   93  71  48 W7        29.93F HX 100
SPIRIT OF STL  PTSUNNY   90  72  55 S5        29.91F HX  97
ST CHARLES     MOSUNNY   88  73  61 CALM      29.91F HX  95

$$
MOZ072>076-082>087-097>100-106>115-272200-
...SOUTH CENTRAL AND SOUTHEAST MISSOURI...

CITY           SKY/WX    TMP DP  RH WIND       PRES   REMARKS
CAPE GIRARDEAU MOSUNNY   92  74  55 CALM      29.90F HX 101
FARMINGTON     LGT RAIN  75  73  94 NW6       29.95F
POPLAR BLUFF   SUNNY     91  73  55 SE5       29.89F HX  99
WEST PLAINS    MOSUNNY   88  69  53 CALM      29.95F HX  92

$$



USA.gov is the U.S. government's official web portal to all federal, state and local government web resources and services.